Location: Caserta
(41.0670°N, 14.3330°E)
Time: 07:11:17
(UTC+02:00)

STARLINK-1353 - Pass Details

Date: 30 May 2020
Orbit: 531 x 535 km, 53.0° (Epoch: 03 July)

Event Time Altitude Azimuth Distance (km) Brightness Sun altitude
Exits shadow 02:23:21 46° 316° (NW) 726 4.3 -24.2°
Maximum altitude 02:23:35 46° 328° (NNW) 719 4.3 -24.2°
Drops below altitude 10° 02:27:30 10° 43° (NE) 1,791 7.2 -23.9°
Enters shadow 03:26:07 -66° 243° (WSW) 12,230 10.4 -18.6°
